Home   Weather   Iqaluit   Past weeks

Flag for Canada Past Weather in Iqaluit, Nunavut, Canada — Yesterday and Last 2 Weeks

Now
-17 °F

Passing clouds.


Feels Like: -17 °F
Forecast: -20 / 9 °F
Wind: 2 mph from North

Location: Iqaluit

Current Time: Feb 26, 2017 at 2:59:22 am

Latest Report: Feb 26, 2017 at 2:00 am


Visibility: 15 mi

Pressure: 29.85 "Hg

Humidity: 76%

Dew Point: -22 °F

Location of IqaluitLocation

Past Weather in Iqaluit — Graph

°F

Iqaluit Temperature Yesterday

Maximum temperature yesterday: -18 °F (at 1:00 pm)
Minimum temperature yesterday: -31 °F (at 1:00 am)
Average temperature yesterday: -25 °F

High & Low Weather Summary for the Past Weeks

 TemperatureHumidityPressure
High5 °F (Feb 20, 9:00 am)84% (Feb 14, 4:00 pm)30.40 "Hg (Feb 14, 4:00 pm)
Low-33 °F (Feb 12, 6:00 am)57% (Feb 22, 2:00 pm)29.67 "Hg (Feb 11, 1:00 am)
Average-17 °F72%30.02 "Hg
* Reported Feb 11 1:00 am — Feb 26 1:00 am, Iqaluit, Weather by CustomWeather, © 2017

Note: Actual official high and low records may vary slightly from our data, if they occured in-between our weather recording intervals... More about our weather records

Advertising

Iqaluit Weather History for the Previous 24 Hours

Scroll right to see more
 ConditionsComfort  
Time TempWeatherWind HumidityBarometerVisibility
1:00 am
Sun, Feb 26
-18 °FPassing clouds.2 mph75%29.87 "Hg15 mi
12:00 am-24 °FPassing clouds.2 mph75%29.91 "Hg15 mi
11:00 pm
Sat, Feb 25
-22 °FPassing clouds.2 mph75%29.94 "Hg15 mi
10:00 pm-18 °FPassing clouds.6 mph75%29.94 "Hg15 mi
9:00 pm-24 °FPassing clouds.5 mph75%29.96 "Hg15 mi
8:00 pm-22 °FPassing clouds.2 mph68%29.99 "Hg15 mi
7:00 pm-22 °FPassing clouds.No wind75%30.01 "Hg15 mi
6:00 pm-24 °FPassing clouds.2 mph68%30.00 "Hg15 mi
5:00 pm-20 °FPassing clouds.3 mph68%30.02 "Hg15 mi
4:00 pm-22 °FScattered clouds.3 mph68%30.01 "Hg30 mi
3:00 pm-18 °FSnow flurries. Scattered clouds.No wind62%30.02 "Hg25 mi
2:00 pm-18 °FSnow flurries. Scattered clouds.3 mph62%30.00 "Hg25 mi
1:00 pm-18 °FSnow flurries. Passing clouds.No wind62%30.01 "Hg25 mi
12:00 pm-20 °FSnow flurries. Scattered clouds.No wind62%30.02 "Hg25 mi
11:00 am-22 °FSnow flurries. Passing clouds.3 mph62%30.03 "Hg25 mi
10:00 am-26 °FSnow flurries. Passing clouds.No wind67%30.03 "Hg25 mi
9:00 am-27 °FSnow flurries. Passing clouds.3 mph67%30.04 "Hg20 mi
8:00 am-29 °FSnow flurries. Scattered clouds.No wind74%30.05 "Hg20 mi
7:00 am-29 °FSnow flurries. Scattered clouds.2 mph67%30.07 "Hg12 mi
6:45 am-27 °FSnow flurries. Passing clouds.2 mph67%30.06 "Hg12 mi
6:00 am-31 °FPassing clouds.3 mph67%30.07 "Hg15 mi
5:00 am-29 °FClear.2 mph67%30.08 "Hg15 mi
4:00 am-31 °FClear.3 mph67%30.09 "Hg15 mi
3:00 am-29 °FClear.No wind67%30.08 "Hg15 mi
2:00 am-31 °FClear.3 mph67%30.09 "Hg15 mi
Weather by CustomWeather, © 2017

See weather overviewHow to use our weather pages